This is the latest recevied weather packets stored in our database for station/object KG5RGN-13. If no packets are shown the sender has not sent any weather packets the latest 1 day(s).
| Time | Temp. | Humidity | Pressure | Rain* | Wind** | Luminosity | Snow |
|---|---|---|---|---|---|---|---|
| 1778005359 | 21.11° C | 100% | 0 hPa | 0 mm | 0 m/s | - | - |
| 1778005059 | 20.56° C | 100% | 0 hPa | 0 mm | 4.92 m/s, 322° | - | - |
| 1778004759 | 20° C | 100% | 0 hPa | 0 mm | 1.34 m/s, 343° | - | - |
| 1778004459 | 20° C | 100% | 0 hPa | 0 mm | 2.68 m/s, 298° | - | - |
| 1778004159 | 19.44° C | 100% | 0 hPa | 0 mm | 0 m/s | - | - |
| 1778003859 | 19.44° C | 100% | 0 hPa | 0 mm | 2.68 m/s, 306° | - | - |
| 1778003559 | 19.44° C | 100% | 0 hPa | 0 mm | 3.58 m/s, 303° | - | - |
| 1778003259 | 20.56° C | 100% | 0 hPa | 0 mm | 3.13 m/s, 299° | - | - |
| 1778002959 | 19.44° C | 100% | 0 hPa | 0 mm | 3.58 m/s, 358° | - | - |
| 1778002659 | 19.44° C | 100% | 0 hPa | 0 mm | 4.02 m/s, 296° | - | - |
| 1778002359 | 20° C | 100% | 0 hPa | 0 mm | 1.79 m/s, 358° | - | - |
| 1778002059 | 19.44° C | 100% | 0 hPa | 0 mm | 4.47 m/s, 268° | - | - |
| 1778001759 | 18.89° C | 100% | 0 hPa | 0 mm | 1.79 m/s, 320° | - | - |
| 1778001459 | 20° C | 100% | 0 hPa | 0 mm | 5.36 m/s, 268° | - | - |
| 1778001159 | 20.56° C | 100% | 0 hPa | 0 mm | 0.89 m/s, 217° | - | - |
| 1778000859 | 20.56° C | 100% | 0 hPa | 0 mm | 1.34 m/s, 244° | - | - |
| 1778000559 | 20.56° C | 100% | 0 hPa | 0 mm | 2.24 m/s, 255° | - | - |
| 1778000259 | 21.11° C | 100% | 0 hPa | 0 mm | 0 m/s | - | - |
| 1777999959 | 20° C | 100% | 0 hPa | 0 mm | 0 m/s | - | - |
| 1777999659 | 21.11° C | 100% | 0 hPa | 0 mm | 0 m/s | - | - |
| 1777999359 | 22.78° C | 100% | 0 hPa | 0 mm | 0 m/s | - | - |
| 1777999059 | 22.78° C | 100% | 0 hPa | 0 mm | 0.89 m/s, 177° | - | - |
| 1777998759 | 22.78° C | 100% | 0 hPa | 0 mm | 1.79 m/s, 247° | - | - |
| 1777998459 | 22.78° C | 100% | 0 hPa | 0 mm | 0 m/s | - | - |
| 1777998159 | 20.56° C | 100% | 0 hPa | 0 mm | 0 m/s | - | - |
* Rain latest hour (hover to see other rain measurements)
** Current wind speed in m/s (hover to see current wind gust speed)